Satellite: INMARSAT 3-F1
Catalog number: 23839
Epoch time:      103049.93915914
Element set:     869 
Inclination:        0.0521 deg
RA of node:       348.3427 deg
Eccentricity:    0.0006800
Arg of perigee:   355.5781 deg
Mean anomaly:     206.5641 deg
Mean motion:    1.00274855 rev/day
Decay rate:    1.1000E-007 rev/day^2
Epoch rev:            2521
Checksum:              405

Satellite: ASTRA 1F
Catalog number: 23842
Epoch time:      103049.00000000
Element set:     560 
Inclination:        0.0122 deg
RA of node:       319.8851 deg
Eccentricity:    0.0002995
Arg of perigee:    65.1991 deg
Mean anomaly:     141.6521 deg
Mean motion:    1.00273184 rev/day
Decay rate:    1.1600E-006 rev/day^2
Epoch rev:            2511
Checksum:              221

Satellite: JAS 2
Catalog number: 24278
Epoch time:      103049.98530178
Element set:     561 
Inclination:       98.5351 deg
RA of node:       201.1475 deg
Eccentricity:    0.0350170
Arg of perigee:   215.3253 deg
Mean anomaly:     142.4226 deg
Mean motion:   13.52872814 rev/day
Decay rate:    2.6999E-007 rev/day^2
Epoch rev:           32136
Checksum:              308

Satellite: UNAMSAT
Catalog number: 24305
Epoch time:      103044.53425984
Element set:     662 
Inclination:       82.9330 deg
RA of node:       266.5081 deg
Eccentricity:    0.0028787
Arg of perigee:   215.8521 deg
Mean anomaly:     144.0702 deg
Mean motion:   13.73451134 rev/day
Decay rate:    2.0499E-006 rev/day^2
Epoch rev:           32279
Checksum:              299

Satellite: INMARSAT 3-F2
Catalog number: 24307
Epoch time:      103048.16355904
Element set:     82 
Inclination:        0.0603 deg
RA of node:        13.0422 deg
Eccentricity:    0.0005875
Arg of perigee:   324.1064 deg
Mean anomaly:     212.9403 deg
Mean motion:    1.00272441 rev/day
Decay rate:   -1.2599E-006 rev/day^2
Epoch rev:            2360
Checksum:              241

Satellite: HOT BIRD 2
Catalog number: 24665
Epoch time:      103048.87050337
Element set:     342 
Inclination:        0.0653 deg
RA of node:       283.7450 deg
Eccentricity:    0.0008076
Arg of perigee:    40.1466 deg
Mean anomaly:     149.8629 deg
Mean motion:    1.00273265 rev/day
Decay rate:    8.2999E-007 rev/day^2
Epoch rev:            2325
Checksum:              298

Satellite: INMARSAT 3-F3
Catalog number: 24674
Epoch time:      103049.33485422
Element set:     989 
Inclination:        0.0843 deg
RA of node:       302.0903 deg
Eccentricity:    0.0003849
Arg of perigee:     6.2845 deg
Mean anomaly:     138.0873 deg
Mean motion:    1.00271118 rev/day
Decay rate:    3.4999E-007 rev/day^2
Epoch rev:            2258
Checksum:              409

Satellite: GOES 10
Catalog number: 24786
Epoch time:      103049.28975103
Element set:     550 
Inclination:        0.1383 deg
RA of node:       105.8324 deg
Eccentricity:    0.0001902
Arg of perigee:   245.7804 deg
Mean anomaly:     125.6325 deg
Mean motion:    1.00259750 rev/day
Decay rate:    8.3999E-007 rev/day^2
Epoch rev:            2133
Checksum:              285

Satellite: INMARSAT 3-F4
Catalog number: 24819
Epoch time:      103050.02990500
Element set:     883 
Inclination:        0.0531 deg
RA of node:       291.8970 deg
Eccentricity:    0.0004037
Arg of perigee:    38.5648 deg
Mean anomaly:     134.8611 deg
Mean motion:    1.00269201 rev/day
Decay rate:   -2.9099E-006 rev/day^2
Epoch rev:            2101
Checksum:              272

Satellite: FENGYUN 2A
Catalog number: 24834
Epoch time:      103048.63821909
Element set:     961 
Inclination:        2.5683 deg
RA of node:        88.4479 deg
Eccentricity:    0.0001309
Arg of perigee:   219.4769 deg
Mean anomaly:     154.6609 deg
Mean motion:    1.00282677 rev/day
Decay rate:   -1.9599E-006 rev/day^2
Epoch rev:            2083
Checksum:              333

Satellite: HOT BIRD 3
Catalog number: 24931
Epoch time:      103048.87050337
Element set:     425 
Inclination:        0.0903 deg
RA of node:       263.3983 deg
Eccentricity:    0.0010427
Arg of perigee:    71.2882 deg
Mean anomaly:     139.0355 deg
Mean motion:    1.00274051 rev/day
Decay rate:    8.2999E-007 rev/day^2
Epoch rev:            2007
Checksum:              276

Satellite: METEOSAT 7
Catalog number: 24932
Epoch time:      103049.88293497
Element set:     251 
Inclination:        0.2122 deg
RA of node:        62.6339 deg
Eccentricity:    0.0001293
Arg of perigee:   253.9671 deg
Mean anomaly:     150.1955 deg
Mean motion:    1.00279754 rev/day
Decay rate:   -2.9999E-008 rev/day^2
Epoch rev:            2002
Checksum:              306

Satellite: ASTRA 1G
Catalog number: 25071
Epoch time:      103049.00000000
Element set:     392 
Inclination:        0.0122 deg
RA of node:       319.8851 deg
Eccentricity:    0.0002995
Arg of perigee:    65.1991 deg
Mean anomaly:     141.6317 deg
Mean motion:    1.00273184 rev/day
Decay rate:    1.1600E-006 rev/day^2
Epoch rev:            1913
Checksum:              228

Satellite: INMARSAT 3-F5
Catalog number: 25153
Epoch time:      103048.86035646
Element set:     845 
Inclination:        0.4669 deg
RA of node:       353.3720 deg
Eccentricity:    0.0002887
Arg of perigee:   334.6501 deg
Mean anomaly:     154.0648 deg
Mean motion:    1.00272771 rev/day
Decay rate:    1.3699E-006 rev/day^2
Epoch rev:            1849
Checksum:              310

Satellite: HOT BIRD 4
Catalog number: 25237
Epoch time:      103046.86592034
Element set:     327 
Inclination:        0.0260 deg
RA of node:       352.7650 deg
Eccentricity:    0.0007523
Arg of perigee:   278.3668 deg
Mean anomaly:     199.0858 deg
Mean motion:    1.00273279 rev/day
Decay rate:    8.7000E-007 rev/day^2
Epoch rev:            1851
Checksum:              402

Satellite: NOAA 15
Catalog number: 25338
Epoch time:      103049.87926809
Element set:     9 
Inclination:       98.5500 deg
RA of node:        72.0211 deg
Eccentricity:    0.0010102
Arg of perigee:   320.9885 deg
Mean anomaly:      39.0565 deg
Mean motion:   14.24245784 rev/day
Decay rate:    2.5899E-006 rev/day^2
Epoch rev:           24784
Checksum:              321

Satellite: RESURS O1-N4
Catalog number: 25394
Epoch time:      103049.56564673
Element set:     451 
Inclination:       98.6312 deg
RA of node:       127.4945 deg
Eccentricity:    0.0002347
Arg of perigee:   101.6238 deg
Mean anomaly:     258.5205 deg
Mean motion:   14.23878363 rev/day
Decay rate:    1.7099E-006 rev/day^2
Epoch rev:           23953
Checksum:              330

Satellite: TMSAT
Catalog number: 25396
Epoch time:      103050.51986494
Element set:     824 
Inclination:       98.6274 deg
RA of node:       127.6098 deg
Eccentricity:    0.0003770
Arg of perigee:   124.1545 deg
Mean anomaly:     235.9993 deg
Mean motion:   14.23511162 rev/day
Decay rate:   -4.3000E-007 rev/day^2
Epoch rev:           23966
Checksum:              318

Satellite: TECHSAT 1B
Catalog number: 25397
Epoch time:      103043.93235492
Element set:     133 
Inclination:       98.6224 deg
RA of node:       120.0366 deg
Eccentricity:    0.0001678
Arg of perigee:   133.8159 deg
Mean anomaly:     226.3156 deg
Mean motion:   14.22958555 rev/day
Decay rate:    8.3999E-007 rev/day^2
Epoch rev:           23869
Checksum:              335

Satellite: ASTRA 2A
Catalog number: 25462
Epoch time:      103049.00000000
Element set:     532 
Inclination:        0.0385 deg
RA of node:       308.7109 deg
Eccentricity:    0.0004824
Arg of perigee:   280.8620 deg
Mean anomaly:     306.1755 deg
Mean motion:    1.00272094 rev/day
Decay rate:    1.4600E-006 rev/day^2
Epoch rev:            1643
Checksum:              227

Satellite: EUTELSAT W2
Catalog number: 25491
Epoch time:      103046.86653737
Element set:     579 
Inclination:        0.0149 deg
RA of node:       115.2307 deg
Eccentricity:    0.0003737
Arg of perigee:   184.6991 deg
Mean anomaly:     173.4544 deg
Mean motion:    1.00271191 rev/day
Decay rate:    1.0400E-006 rev/day^2
Epoch rev:            1602
Checksum:              272

Satellite: HOT BIRD 5
Catalog number: 25495
Epoch time:      103042.93716436
Element set:     500 
Inclination:        0.0310 deg
RA of node:       255.9940 deg
Eccentricity:    0.0003377
Arg of perigee:    65.4663 deg
Mean anomaly:     190.5501 deg
Mean motion:    1.00272693 rev/day
Decay rate:    1.6499E-006 rev/day^2
Epoch rev:            1595
Checksum:              286

Satellite: SEDSAT 1
Catalog number: 25509
Epoch time:      103050.35047537
Element set:     783 
Inclination:       31.4306 deg
RA of node:       148.7509 deg
Eccentricity:    0.0358145
Arg of perigee:   309.6056 deg
Mean anomaly:      47.3506 deg
Mean motion:   14.27438028 rev/day
Decay rate:    9.5499E-006 rev/day^2
Epoch rev:           22542
Checksum:              405

Satellite: PAN SAT
Catalog number: 25520
Epoch time:      103046.92234715
Element set:     638 
Inclination:       28.4593 deg
RA of node:       241.4854 deg
Eccentricity:    0.0005372
Arg of perigee:   319.6173 deg
Mean anomaly:      40.4028 deg
Mean motion:   15.13876265 rev/day
Decay rate:    3.4169E-005 rev/day^2
Epoch rev:           23718
Checksum:              303

Satellite: ISS (ZARYA)
Catalog number: 25544
Epoch time:      103050.55039097
Element set:     706 
Inclination:       51.6324 deg
RA of node:       251.0580 deg
Eccentricity:    0.0012257
Arg of perigee:   221.8698 deg
Mean anomaly:     248.1451 deg
Mean motion:   15.58559398 rev/day
Decay rate:    2.8467E-004 rev/day^2
Epoch rev:           24265
Checksum:              315

